Location: Izdebno
(52.6670°N, 16.2170°E)
Time: 12:16:24
(UTC+02:00)

A-11 Canister half - Pass Details

Date: 26 February 2024
Orbit: 1525 x 1683 km, 47.3° (Epoch: 24 April)

Event Time Altitude Azimuth Distance (km) Brightness Sun altitude
Rises 18:57:34 0° 193° (SSW) 4,782 11.7 -14.4°
Reaches altitude 10° 19:01:34 10° 180° (S) 3,774 11.0 -15.0°
Maximum altitude 19:08:17 22° 134° (SE) 2,897 10.0 -16.0°
Enters shadow 19:10:43 20° 114° (ESE) 3,015 9.9 -16.4°
